Time,TemperatureF,DewpointF,PressureIn,WindDirection,WindDirectionDegrees,WindSpeedMPH,WindSpeedGustMPH,Humidity,HourlyPrecipIn,Conditions,Clouds,dailyrainin,SolarRadiationWatts/m^2,SoftwareType,DateUTC
2013-03-30 00:09:00,63.1,57.5,30.00,NNW,338,0.0,0.0,82,0.00,,,0.00,0,Wunderground v.1.15,2013-03-29 13:09:00,
2013-03-30 00:14:00,63.1,57.9,30.00,NNW,338,0.0,0.0,83,0.00,,,0.00,0,Wunderground v.1.15,2013-03-29 13:14:00,
2013-03-30 00:19:00,63.1,57.9,30.00,NNW,338,0.0,0.0,83,0.00,,,0.00,0,Wunderground v.1.15,2013-03-29 13:19:00,
2013-03-30 00:29:00,62.8,56.9,29.99,NNW,338,0.0,0.0,81,0.00,,,0.00,0,Wunderground v.1.15,2013-03-29 13:29:00,
2013-03-30 00:39:00,62.6,56.7,29.99,NNW,338,0.0,0.0,81,0.00,,,0.00,0,Wunderground v.1.15,2013-03-29 13:39:00,
2013-03-30 00:49:00,62.3,56.4,29.99,NNW,338,0.0,0.0,81,0.00,,,0.00,0,Wunderground v.1.15,2013-03-29 13:49:00,
2013-03-30 00:54:00,62.1,56.5,29.99,NNW,338,0.0,0.0,82,0.00,,,0.00,0,Wunderground v.1.15,2013-03-29 13:54:00,
2013-03-30 00:59:00,61.8,56.2,29.98,NNW,338,0.0,0.0,82,0.00,,,0.00,0,Wunderground v.1.15,2013-03-29 13:59:00,
2013-03-30 01:04:00,61.6,56.0,29.99,NNW,338,0.0,0.0,82,0.00,,,0.00,0,Wunderground v.1.15,2013-03-29 14:04:00,
2013-03-30 01:14:00,61.2,56.0,29.99,NNW,338,0.0,0.0,83,0.00,,,0.00,0,Wunderground v.1.15,2013-03-29 14:14:00,
2013-03-30 22:04:00,67.5,60.8,29.81,ENE,64,2.0,3.0,79,0.00,,,0.00,0,Wunderground v.1.15,2013-03-30 11:04:00,
2013-03-30 22:14:00,67.4,61.0,29.80,NNE,17,3.0,3.0,80,0.00,,,0.00,0,Wunderground v.1.15,2013-03-30 11:14:00,
2013-03-30 22:19:00,67.3,60.9,29.80,NNW,336,2.0,2.0,80,0.00,,,0.00,0,Wunderground v.1.15,2013-03-30 11:19:00,
2013-03-30 22:29:00,67.1,61.1,29.80,North,11,2.0,2.0,81,0.00,,,0.00,0,Wunderground v.1.15,2013-03-30 11:29:00,
2013-03-30 22:39:00,66.9,60.9,29.80,NNW,342,1.0,3.0,81,0.00,,,0.00,0,Wunderground v.1.15,2013-03-30 11:39:00,
2013-03-30 22:44:00,66.9,60.9,29.80,NNE,23,2.0,3.0,81,0.00,,,0.00,0,Wunderground v.1.15,2013-03-30 11:44:00,
2013-03-30 22:49:00,66.8,61.1,29.79,North,360,2.0,2.0,82,0.00,,,0.00,0,Wunderground v.1.15,2013-03-30 11:49:00,
2013-03-30 22:54:00,66.8,61.1,29.79,North,351,1.0,2.0,82,0.00,,,0.00,0,Wunderground v.1.15,2013-03-30 11:54:00,
2013-03-30 23:04:00,66.8,61.1,29.78,NNE,19,2.0,2.0,82,0.00,,,0.00,0,Wunderground v.1.15,2013-03-30 12:04:00,
2013-03-30 23:09:00,66.7,61.0,29.78,NW,325,2.0,2.0,82,0.00,,,0.00,0,Wunderground v.1.15,2013-03-30 12:09:00,
2013-03-30 23:14:00,66.7,61.0,29.78,NW,313,2.0,3.0,82,0.00,,,0.00,0,Wunderground v.1.15,2013-03-30 12:14:00,
2013-03-30 23:24:00,66.6,61.3,29.78,North,351,2.0,2.0,83,0.00,,,0.00,0,Wunderground v.1.15,2013-03-30 12:24:00,
2013-03-30 23:29:00,66.5,61.2,29.78,North,360,2.0,2.0,83,0.00,,,0.00,0,Wunderground v.1.15,2013-03-30 12:29:00,
2013-03-30 23:39:00,66.5,61.2,29.78,North,5,2.0,4.0,83,0.00,,,0.00,0,Wunderground v.1.15,2013-03-30 12:39:00,
2013-03-30 23:44:00,66.5,61.2,29.78,NNW,347,3.0,4.0,83,0.00,,,0.00,0,Wunderground v.1.15,2013-03-30 12:44:00,
2013-03-30 23:49:00,66.4,61.1,29.77,NNW,328,3.0,4.0,83,0.00,,,0.00,0,Wunderground v.1.15,2013-03-30 12:49:00,
2013-03-30 23:59:00,66.3,61.0,29.77,NW,317,2.0,2.0,83,0.00,,,0.00,0,Wunderground v.1.15,2013-03-30 12:59:00,